Skip Page Navigation
NASA JPL Caltech
NASA Logo - Jet Propulsion Laboratory + View the NASA Portal
+ Near-Earth Object (NEO) Program
Search JPL
JPL Home Earth Solar System Stars & Galaxies Technology
JPL Solar System Dynamics
BODIES ORBITS EPHEMERIDES TOOLS PHYSICAL DATA DISCOVERY FAQ SITE MAP
JPL Small-Body Database Browser
Search: [ help ]  
(2006 GB)
Classification: Aten [NEO, PHA]          SPK-ID: 3329278
Ephemeris | Orbit Diagram | Orbital Elements | Physical Parameters | Close-Approach Data ]

[ hide orbit diagram ]
Orbit Diagram
Note: Make sure you have Java enabled on your browser to see the applet. This applet is provided as a 3D orbit visualization tool. The applet was implemented using 2-body methods, and hence should not be used for determining accurate long-term trajectories (over several years or decades) or planetary encounter circumstances. For accurate long-term ephemerides, please instead use our Horizons system.
Orbit Viewer

Additional Notes: the orbits shown in the applet are color coded. The planets are white lines, and the asteroid/comet is a blue line. The bright white line indicates the portion of the orbit that is above the ecliptic plane, and the darker portion is below the ecliptic plane. Likewise for the asteroid/comet orbit, the light blue indicates the portion above the ecliptic plane, and the dark blue the portion below the ecliptic plane.

Orbit Viewer applet originally written and kindly provided by Osamu Ajiki (AstroArts), and further modified by Ron Baalke (JPL).


Orbital Elements at Epoch 2456400.5 (2013-Apr-18.0) TDB
Reference: JPL 37 (heliocentric ecliptic J2000)
 Element Value Uncertainty (1-sigma)   Units 
e .1794218453326468 5.6811e-07  
a .9590542610963892 1.1354e-07 AU
q .786978975796337 6.3711e-07 AU
i 10.06152617710272 2.764e-05 deg
node 183.8399059699179 2.3026e-05 deg
peri 242.8394003511807 2.735e-05 deg
M 279.9628162620249 0.00042636 deg
tp 2456476.769780010953
(2013-Jul-03.26978001)
0.00041981 JED
period 343.0545594136836
0.94
6.0922e-05
1.668e-07
d
yr
n 1.049395759716116 1.8636e-07 deg/d
Q 1.131129546396441 1.3392e-07 AU
  Orbit Determination Parameters
   # obs. used (total)      175  
   data-arc span      843 days (2.31 yr)  
   first obs. used      2006-04-02  
   last obs. used      2008-07-23  
   planetary ephem.      DE405  
   SB-pert. ephem.      SB405-CPV-2  
   condition code      2  
   fit RMS      .59199  
   data source      ORB  
   producer      Otto Matic  
   solution date      2011-Sep-14 20:09:03  

Additional Information
 Earth MOID = .0100991 AU 
 T_jup = 6.257 
[ show covariance matrix ]

Ephemeris | Orbit Diagram | Orbital Elements | Physical Parameters | Close-Approach Data ]

Physical Parameter Table
Parameter Symbol Value Units Sigma Reference Notes
absolute magnitude H 20.266 mag .48847 37 autocmod 2.5a

[ show close-approach data ]
Ephemeris | Orbit Diagram | Orbital Elements | Physical Parameters | Close-Approach Data ]
ABOUT SSD CREDITS/AWARDS PRIVACY/COPYRIGHT GLOSSARY LINKS
FirstGov 2013-May-24 18:01 UT
(server date/time)  
NASA Home Page
Site Manager:   Donald K. Yeomans
Webmaster  Alan B. Chamberlin